Погода в Алабино

Россия / Московская область     55°31′31″N   37°00′03″E
темп.,
°C
ветер,
м/с
пор.,
м/с
влажн.,
%
обл.,
%
осадки,
мм/ч
давл.,
гПа
погр.,
м
10 апреля, сб
сб1000:00−1ю310835 0.0 1026153
03:00−1ю310834 0.0 1026179
06:000ю310805 0.0 1026209
09:00+5ююз49595 0.0 1026481
12:00+9ююз57455 0.0 10251864
15:00+10ююз574146 0.0 10241991
18:00+8ююз37515 0.0 1024385
21:00+4ю39715 0.0 1025177
11 апреля, вс
вс1100:00+2ююз311750 0.0 1026213
03:00+2ююз311791 0.0 1026213
06:00+1юз39844 0.0 1027157
09:00+7юз35615 0.0 1029305
12:00+12ююз35470 0.0 1029820
15:00+14юз34430 0.0 10291199
18:00+12ююз11550 0.0 102928
21:00+8ю22680 0.0 103110
12 апреля, пн
пн1200:00+6ююв11736 0.0 103210
03:00+5юв227628 0.0 103215
06:00+4в238184 0.0 103238
09:00+8в3762100 0.0 1032340
12:00+12в4740100 0.0 1030757
15:00+10в4955100 0.0 1029479
18:00+11вюв3876100 0.0 1028514
21:00+9в2993100 0.0 1027235
13 апреля, вт
вт1300:00+8в2796100 0.0 1026154
03:00+8вюв2695100 0.0 1025131
06:00+7юв2592100 0.0 102493
09:00+11ююв3973100 0.0 1024282
12:00+15ююв3660100 0.0 1023544
15:00+18ю4651100 0.0 10221201
18:00+16ююв245866 0.0 102284
21:00+11ююв397496 0.0 1023161
14 апреля, ср
ср1400:00+10ююв238162 0.0 102239
03:00+9юв247974 0.0 102269
06:00+8ююв388190 0.0 1021151
09:00+14ююв396041 0.0 1021342
12:00+19юв5114361 0.0 10191742
15:00+19юв51036100 0.0 10182073
18:00+16юв5104486 0.0 1017784
21:00+12юв31357100 0.0 1017390